Lapse_Rate
-1.1 -1.3 -1.2 -0.6 -0.8 -0.5 -0.4 -0.7 -0.5 -0.3 -0.1 0.3 0.6 0.6 0.9 1.4 2.0 2.5 3.3 3.7 4.0 4.4 4.8 5.5 5.7 5.4 5.2 5.1 4.9 4.6 4.5 4.2 4.1 3.8 3.2 2.6 2.0 1.6 1.5 1.3 1.1 1.0 0.9
-1.1 -1.4 -1.7 -1.5 -1.3 -1.0 -0.7 -0.7 -1.1 -1.0 -0.9 -0.4 -0.3 0.3 0.6 1.2 2.0 2.2 2.8 3.4 4.2 4.5 5.0 5.4 5.8 6.0 5.9 5.3 5.1 4.4 4.2 4.1 3.9 3.4 2.7 2.1 1.2 1.0 1.0 0.8 0.7 0.6 0.7
-1.3 -1.2 -1.5 -1.8 -1.3 -1.3 -1.0 -1.1 -1.2 -1.2 -1.7 -1.3 -1.3 -0.2 0.5 1.4 1.7 2.4 2.7 2.9 3.7 4.3 5.1 5.4 5.6 6.3 6.0 5.4 4.7 4.4 4.1 3.9 3.4 3.1 2.6 1.4 1.0 0.8 0.7 0.7 0.5 0.5 0.4
-1.1 -1.5 -1.5 -1.5 -1.4 -1.4 -1.4 -1.8 -2.0 -2.1 -2.1 -1.9 -1.5 -1.2 -0.6 0.7 1.6 2.4 2.8 2.9 3.1 3.7 4.9 5.4 5.5 6.1 6.1 5.6 5.0 4.6 4.1 3.7 3.3 2.7 1.8 1.2 0.9 0.8 0.7 0.5 0.4 0.5 0.6
-1.2 -1.2 -1.2 -1.2 -1.1 -1.3 -1.5 -1.3 -2.1 -1.7 -1.7 -1.8 -1.6 -1.2 -0.9 -0.6 0.5 2.3 2.4 2.6 3.1 3.6 3.8 5.0 5.4 5.3 5.1 5.1 5.0 4.8 4.2 3.7 3.2 2.5 1.4 1.0 0.6 0.6 0.5 0.4 0.4 0.5 0.5
-1.0 -0.9 -1.0 -1.3 -0.9 -1.1 -1.2 -1.7 -1.5 -1.8 -1.1 -0.7 0.9 1.0 -0.0 0.2 0.5 0.9 2.3 3.0 2.8 3.2 3.6 3.8 3.6 3.9 4.7 4.5 4.4 4.6 4.5 3.8 3.4 2.6 1.5 1.1 0.7 0.6 0.5 0.3 0.4 0.6 0.9
-0.7 -0.5 -0.5 -1.3 -0.6 -0.1 -0.1 -0.7 -0.9 -0.8 -1.0 -0.5 1.2 1.0 0.8 1.2 1.1 1.4 2.1 2.5 2.5 2.8 2.9 3.2 3.3 3.2 3.5 4.1 4.3 4.4 4.5 4.1 3.4 2.6 1.5 1.0 0.6 0.4 0.4 0.2 0.4 0.6 0.7
-0.4 -0.1 0.0 -0.4 -0.2 0.4 -0.4 -0.3 0.3 -0.3 0.2 0.2 1.7 2.2 3.4 2.7 1.4 1.7 1.5 2.2 2.3 2.7 2.6 2.2 2.7 2.6 2.6 3.0 3.4 4.1 4.5 4.1 3.4 2.6 1.5 1.1 0.7 0.4 0.2 0.2 0.3 0.3 0.8
0.1 0.3 0.3 0.5 0.1 0.8 0.9 0.4 0.7 1.3 1.6 0.1 1.5 3.4 3.2 3.5 2.0 0.8 0.6 0.8 1.2 1.4 2.1 2.0 2.0 2.0 2.0 2.3 2.8 3.4 4.0 3.6 3.2 2.6 1.7 1.3 1.1 0.7 0.5 0.2 0.3 0.4 0.7
0.1 0.5 0.7 0.9 0.8 0.5 1.4 1.0 1.1 1.9 2.2 1.8 1.1 2.8 2.1 2.7 4.1 4.0 1.7 0.5 0.2 0.7 1.3 1.0 1.3 1.4 1.6 1.7 1.8 2.4 3.3 2.8 2.5 2.3 1.6 1.1 0.8 0.7 0.4 0.2 0.1 0.3 0.8
0.2 0.3 0.8 1.0 1.2 1.1 1.2 1.7 1.6 1.7 2.0 3.7 3.3 1.6 2.7 2.3 1.6 3.8 6.3 3.8 1.1 0.6 0.8 1.1 0.9 0.4 0.6 1.0 1.0 1.6 2.8 1.7 1.8 1.7 1.6 1.0 0.7 0.4 0.2 0.3 0.3 0.5 1.1
0.4 0.8 0.8 1.6 1.9 1.6 1.6 1.6 1.4 1.7 2.7 2.6 3.5 3.6 4.2 2.8 2.8 2.0 3.2 4.9 3.4 2.2 0.7 -0.0 0.3 0.3 -0.4 -0.6 0.1 0.3 1.1 0.9 0.7 0.7 1.0 1.0 0.5 0.3 0.1 -0.1 -0.0 0.5 0.9
1.1 0.7 0.7 1.4 2.3 2.4 2.7 2.8 2.9 2.6 2.2 2.8 2.7 3.3 3.3 4.1 3.9 2.8 3.9 4.1 2.5 1.4 0.9 -0.9 -0.6 -0.5 -0.8 -1.0 -1.2 -1.3 -0.9 0.0 -0.4 -0.1 0.1 0.4 0.2 0.3 0.0 -0.3 -0.3 0.3 0.6
1.7 1.5 2.3 2.4 2.4 2.8 2.9 3.1 3.3 2.9 3.4 2.5 2.9 2.6 3.5 1.7 1.8 2.9 4.2 4.7 4.4 2.3 0.5 0.7 -2.5 -2.1 -1.6 -2.1 -1.8 -1.8 -1.5 -1.0 -0.2 0.2 0.2 0.3 -0.2 -0.1 -0.5 -0.8 -0.6 -0.2 0.3
2.9 3.0 2.7 3.3 3.4 4.1 4.8 4.6 4.4 3.8 2.7 2.5 2.3 2.4 2.7 1.8 1.2 2.5 2.8 3.6 5.5 6.0 4.8 0.4 -0.0 -2.7 -2.2 -2.1 -1.4 -1.5 -1.1 -1.0 0.9 1.0 0.7 0.5 0.5 -0.5 -0.6 -0.7 -0.7 -0.8 -0.2
3.8 3.3 3.2 3.1 1.6 1.5 3.3 3.5 5.5 5.1 3.4 2.8 2.4 1.6 1.6 2.0 2.2 1.8 1.8 1.6 3.0 4.8 5.8 3.1 -0.4 -1.7 -1.5 -1.7 -1.7 -2.2 -0.7 0.3 -0.6 -0.8 -0.1 0.3 0.4 -0.2 -0.5 -0.9 -1.0 -0.8 -0.7
3.0 3.2 3.9 4.5 3.6 1.9 2.5 1.0 3.4 5.4 4.4 3.7 3.2 3.3 2.7 2.5 2.3 1.9 1.8 1.5 2.8 4.2 5.0 4.4 -0.3 -1.7 -1.7 -1.6 -2.4 -1.7 -2.0 -1.6 -2.1 -0.1 0.4 0.6 0.3 0.1 -0.7 -1.0 -1.0 -1.3 -1.0
2.4 0.9 1.9 4.2 2.5 2.4 2.8 3.9 4.9 4.3 4.7 4.6 4.0 3.1 3.0 2.5 2.9 2.2 2.1 2.4 3.4 4.1 4.2 4.6 -0.2 -1.5 -1.1 -1.0 -1.0 -0.7 -1.4 -2.0 -1.3 -0.9 -1.6 0.8 0.5 0.3 -0.8 -1.2 -1.3 -0.8 0.6
2.2 2.7 2.7 2.6 2.0 1.5 2.2 3.1 3.5 3.7 3.3 3.4 3.4 3.4 3.5 3.1 3.2 2.9 2.9 4.5 4.0 3.5 3.4 3.4 -0.2 -1.3 -1.9 -1.4 -1.4 -0.0 -1.4 -2.3 -2.5 0.0 -0.5 0.6 0.0 -0.2 -0.8 -1.1 -0.9 -0.3 -0.6
1.7 1.3 1.2 1.5 1.5 1.2 1.2 0.6 0.9 2.0 2.3 2.8 3.2 3.6 3.8 4.0 4.0 4.1 3.8 4.0 3.2 2.3 1.7 1.6 -0.8 -1.4 -1.9 -2.2 -1.1 -1.1 -2.7 -2.7 -1.0 0.8 0.3 0.7 -0.1 -0.6 -1.1 -0.3 1.1 0.9 -0.0
1.2 1.1 1.0 0.9 0.6 0.4 -1.6 -2.2 -1.3 -0.6 0.5 1.6 2.1 2.4 3.3 3.7 1.3 1.8 3.7 3.3 2.9 2.6 0.4 0.4 -1.5 -2.7 -3.5 -3.4 -1.9 -2.1 -0.9 -2.4 -0.4 1.0 0.7 0.0 -0.3 -0.3 0.0 0.7 0.6 0.6 0.2
0.8 0.6 0.5 0.3 -0.0 -0.2 -4.0 -3.8 -3.6 -0.4 0.3 1.3 1.3 1.5 2.2 0.7 0.6 -2.5 -2.4 -1.9 1.9 2.9 0.9 1.0 0.5 -0.8 -0.6 -0.9 -1.1 -1.2 -2.3 0.6 2.7 -0.5 0.7 -0.5 0.0 0.6 1.5 0.8 0.4 0.6 0.6
-0.9 -0.4 -1.0 -1.2 -0.6 -1.1 -2.2 -2.7 -3.8 -1.2 -0.8 -0.1 0.6 1.1 1.3 0.5 -0.3 0.8 -0.3 -2.7 -2.8 -2.8 -1.2 1.3 1.0 -0.1 -1.6 -2.1 -1.6 -1.7 -1.3 -0.5 0.9 -1.4 0.3 -0.2 -0.8 0.2 -0.1 1.5 0.8 0.8 0.1
0.2 0.6 0.2 -0.9 -1.1 -1.4 -1.7 -2.0 -2.7 -1.5 -1.4 -1.5 -1.4 -0.8 0.0 0.8 1.0 0.9 0.9 -0.6 -2.3 -2.7 -2.1 -1.4 -0.0 -1.7 -2.7 -1.4 -0.9 -0.0 -0.7 -1.1 -1.2 -1.6 -0.3 0.9 -0.6 0.7 0.7 0.9 1.3 0.9 -0.0
-3.0 -2.8 -1.0 -0.6 -0.7 -1.1 -2.6 -3.3 -2.7 -1.3 -2.2 -3.7 -3.1 -2.5 -1.6 -0.4 0.6 -0.9 0.1 -3.0 -5.1 -6.0 -5.1 -5.1 -4.7 -4.0 -3.1 -2.4 -1.7 -1.4 -1.1 1.0 1.1 0.5 -1.0 0.3 -0.1 1.2 1.4 1.5 1.2 0.8 -0.1
-1.2 -1.8 -2.2 -1.9 -1.4 -1.3 -1.6 -2.2 -1.9 -1.4 -1.7 -1.6 -2.5 -3.3 -3.9 -2.8 -1.5 -2.7 -1.5 -3.1 -4.5 -5.6 -5.3 -5.5 -4.9 -4.0 -2.8 -1.7 -1.1 1.9 0.5 1.2 0.7 0.9 -0.8 0.8 0.7 1.5 2.8 0.3 1.7 0.5 -0.7
Wind_Speed
6 10 9 9 10 14 12 9 8 8 7 7 8 7 7 7 7 7 8 10 16 17 15 12 12 13 14 13 12 11 9 7 5 5 6 6 5 5 4 4 5 7 8
10 9 8 8 10 14 15 12 9 7 6 7 7 9 9 9 10 10 11 12 18 19 17 14 13 14 13 11 11 10 10 8 7 7 8 6 4 3 2 4 5 7 8
13 11 7 6 11 13 13 11 8 7 4 5 5 7 9 11 11 12 14 14 16 21 19 16 15 15 15 13 13 12 11 10 10 9 7 5 4 2 1 4 6 7 8
16 11 5 6 11 12 11 6 4 4 4 4 3 4 5 9 10 12 12 14 15 16 20 19 18 18 18 18 16 15 13 13 12 11 8 6 3 1 3 6 8 9 10
17 14 8 8 12 8 6 6 4 4 4 4 5 4 5 5 6 8 11 13 17 18 17 22 24 20 17 18 17 15 15 15 14 12 9 7 4 1 4 6 8 10 11
17 15 10 9 12 5 5 4 4 3 3 4 4 5 4 5 5 4 7 12 15 18 19 17 17 18 20 18 17 17 16 15 14 12 10 7 3 2 4 6 9 11 13
19 16 8 6 9 8 9 8 4 6 5 3 1 3 4 7 7 7 8 8 10 15 16 17 16 15 17 21 20 18 18 17 15 14 11 8 5 2 5 7 10 11 12
20 17 12 9 11 8 7 8 7 3 4 6 3 1 3 3 3 7 6 7 9 11 11 15 16 17 17 17 20 22 21 20 18 16 13 9 6 3 6 8 9 10 12
21 19 16 12 11 10 9 10 10 9 5 4 7 4 2 5 1 1 3 4 5 5 7 11 14 16 19 19 22 23 25 24 21 18 13 9 5 5 7 8 8 10 11
16 19 16 13 13 10 12 9 9 8 5 4 2 8 2 3 3 3 2 2 3 5 7 5 11 15 18 19 23 25 28 28 24 19 15 11 8 7 7 7 8 9 11
16 15 15 14 14 11 12 12 9 10 8 8 8 3 7 5 2 5 11 4 2 4 4 6 10 13 17 19 19 22 32 31 25 18 14 12 10 8 7 7 9 9 11
10 13 14 14 12 11 12 11 12 13 13 11 9 10 8 4 6 5 8 11 6 4 5 5 7 10 15 18 21 25 31 30 26 20 15 12 10 9 7 6 7 9 10
9 14 14 11 8 9 10 9 11 12 13 12 13 11 10 11 8 4 6 6 5 3 4 5 6 10 12 15 18 23 28 32 28 20 16 14 11 9 6 6 7 9 11
6 5 6 8 10 11 10 9 9 10 12 11 15 13 9 9 7 7 10 6 6 4 3 7 3 7 12 14 13 17 16 25 23 19 15 12 10 10 7 5 8 10 12
6 8 8 8 7 6 7 10 10 12 11 12 12 12 8 9 7 8 8 9 11 9 7 5 5 5 9 11 13 16 9 15 19 16 13 11 10 8 7 7 9 9 8
5 3 6 7 11 13 13 11 11 12 11 9 9 10 12 10 10 9 9 8 9 12 11 5 6 3 6 9 16 16 15 24 23 19 16 13 12 8 8 6 9 6 6
5 9 9 13 13 8 10 4 11 18 9 11 10 11 15 14 10 8 8 8 10 11 12 5 1 3 6 9 12 16 20 17 15 17 11 9 8 4 4 7 5 3 8
7 8 4 9 8 5 5 9 14 15 19 16 15 15 16 9 10 10 7 12 12 11 8 13 3 3 2 6 7 9 7 10 8 14 13 7 4 1 2 2 2 5 10
6 4 4 5 5 5 3 4 8 11 13 14 13 13 14 12 10 8 9 10 9 7 7 3 3 2 2 5 3 2 6 6 9 10 12 9 6 3 3 2 3 6 5
5 5 5 4 4 4 5 5 4 4 8 9 9 10 11 10 10 11 10 11 7 6 5 4 3 2 2 3 4 5 4 3 4 7 10 7 7 7 4 3 6 7 11
4 4 5 5 5 4 5 6 6 6 6 6 6 6 7 10 12 13 8 8 8 8 4 5 3 2 3 3 10 5 4 7 4 0 2 2 4 4 4 4 5 9 13
3 3 3 2 4 3 5 5 3 3 4 4 5 5 5 7 7 11 12 10 10 10 9 5 4 5 7 3 5 6 7 4 2 1 2 2 4 3 3 4 9 15 18
5 4 1 1 2 2 6 8 5 3 4 4 6 5 4 4 7 6 7 5 5 8 2 9 6 7 5 6 9 9 9 4 3 4 2 4 2 2 2 5 8 13 16
6 5 4 3 3 3 4 7 7 3 3 4 4 6 7 6 5 5 4 5 4 4 1 4 5 5 6 10 12 9 9 8 6 4 1 2 2 1 2 3 9 13 17
4 5 4 5 5 6 6 5 4 2 4 5 5 4 5 6 6 6 6 7 6 5 12 15 14 12 13 17 16 10 8 9 3 1 1 1 2 2 1 2 7 12 16
7 5 8 6 7 9 8 6 3 3 4 5 7 5 6 7 7 8 7 8 7 4 9 10 10 14 14 11 10 5 10 8 4 2 2 3 3 3 2 1 2 9 15
Wind_Direction
176 167 173 174 182 182 188 194 200 203 212 229 236 215 224 233 248 249 243 232 216 218 222 224 229 229 231 222 218 212 206 193 170 146 125 111 93 64 38 15 356 351 343
173 177 176 181 186 188 193 191 192 203 219 224 245 244 233 231 238 242 242 236 221 223 224 222 224 224 222 214 212 195 191 178 158 148 138 129 113 91 32 355 343 340 335
178 180 183 187 194 193 190 191 201 206 217 227 244 245 249 244 235 241 237 232 228 226 227 224 226 223 205 186 190 189 184 174 164 157 150 145 139 117 1 341 332 325 324
181 180 185 202 193 182 182 185 180 203 220 215 232 241 242 245 243 244 239 236 234 227 229 227 226 219 201 188 191 189 181 177 171 167 164 160 147 47 333 325 321 323 326
187 186 196 197 188 189 194 193 193 180 204 220 228 239 243 240 232 238 234 233 232 227 226 226 226 225 215 204 191 189 188 184 177 175 174 168 171 242 315 320 323 318 317
192 195 198 187 182 187 200 189 188 188 193 211 232 247 245 243 231 215 231 231 227 224 224 229 230 222 214 213 201 193 192 189 184 183 183 183 194 277 312 310 315 316 313
194 197 203 192 188 199 208 201 183 190 215 166 119 287 265 244 236 225 219 219 219 222 220 219 218 219 213 213 209 198 198 195 193 192 191 194 198 250 290 301 306 310 312
196 199 201 198 198 204 194 190 191 179 199 173 172 140 301 313 256 228 210 213 219 214 214 215 212 209 205 203 209 203 200 199 198 197 198 198 206 236 279 296 306 312 312
202 204 202 199 197 204 209 201 198 196 205 196 199 167 160 227 293 334 234 210 205 202 213 205 209 206 201 204 207 206 201 196 196 198 197 201 216 251 281 298 306 313 315
205 202 200 203 203 199 209 204 198 203 186 189 222 236 228 156 195 303 301 238 192 202 210 202 205 206 203 204 205 203 202 195 194 195 194 195 207 244 269 285 294 305 311
204 204 205 204 211 208 209 203 198 200 202 213 212 163 230 225 213 217 270 249 275 228 216 214 213 203 205 204 205 207 206 193 194 197 198 196 207 227 253 280 295 303 312
202 206 205 210 214 213 212 204 197 201 208 213 215 215 213 192 213 203 241 253 233 225 218 218 218 211 202 204 204 201 198 190 191 195 198 209 210 222 236 270 291 303 308
208 207 202 206 209 213 215 212 217 219 214 213 213 217 221 234 238 206 213 256 246 242 250 236 222 213 205 201 202 189 190 191 191 191 194 207 209 225 242 283 294 301 302
198 201 173 191 202 214 217 211 212 215 218 218 221 219 222 224 223 219 231 222 256 241 220 243 214 212 204 192 190 180 185 188 188 198 207 215 203 221 243 274 287 295 302
173 178 177 196 211 219 227 220 223 225 221 230 231 231 214 225 210 224 218 218 243 258 247 246 229 182 179 179 171 169 166 178 193 211 217 224 221 223 258 279 279 293 303
124 67 327 275 215 211 221 236 242 238 224 226 234 231 225 226 223 219 222 214 230 239 256 212 218 169 175 161 159 149 150 169 213 204 208 208 214 240 276 289 287 299 333
207 215 209 262 250 226 253 253 270 276 204 215 221 222 234 234 224 216 220 223 233 234 245 243 186 181 168 168 163 169 174 188 189 199 189 193 218 243 296 295 297 342 334
30 45 64 229 255 260 231 224 223 206 243 242 228 226 234 235 230 228 226 227 235 236 238 247 164 170 175 188 180 174 179 152 161 175 161 182 162 274 279 302 348 325 328
17 354 318 344 336 339 311 244 232 225 228 228 226 223 226 223 226 236 238 242 235 223 216 199 167 94 95 170 150 149 145 129 149 168 140 150 140 109 45 27 305 299 342
41 32 36 20 350 6 25 11 328 286 243 227 234 233 237 232 233 241 235 241 224 213 205 174 163 152 150 147 163 165 150 120 134 137 108 127 118 121 114 348 322 354 349
67 54 32 17 10 42 34 14 353 328 315 295 261 243 243 239 228 234 235 224 204 211 172 171 146 135 164 156 193 180 174 133 115 88 94 72 75 60 32 7 29 2 350
31 89 64 20 19 17 28 35 5 299 306 309 305 297 281 296 294 278 260 269 204 201 195 172 184 202 199 208 150 168 140 147 193 113 142 82 68 43 358 91 38 1 349
333 337 349 341 349 355 354 355 346 332 326 343 324 310 281 241 255 262 277 272 122 88 97 193 186 190 149 161 143 141 153 134 145 144 236 131 143 108 78 70 49 2 351
299 294 261 252 288 264 310 320 334 323 337 325 316 317 302 285 245 238 205 131 76 50 209 163 175 154 138 152 156 151 142 108 93 96 190 122 127 90 82 88 30 11 358
297 283 291 270 242 261 233 262 302 344 314 289 293 293 299 302 288 213 151 121 94 58 56 70 82 96 121 132 139 126 135 132 114 133 116 128 111 106 136 124 18 13 6
296 300 292 266 272 277 269 271 298 307 300 315 307 297 304 279 280 180 147 140 128 128 116 100 91 94 101 103 96 138 150 133 120 131 157 112 140 131 163 149 351 5 13